CW0728 Weather Reports


time (UTC)temp
F
wind
direction
speed
knots
gust
knots
rain 1hr
in
rain 24hr
in
rain mn
in
humidity
%
barometer
mb
20260508060047 41 323 0.0 0.0 0.00 0.01 0.00 62 1005.5
20260508054520 40 337 0.0 0.0 0.00 0.01 0.00 65 1005.7
20260508053056 41 342 0.0 0.0 0.00 0.01 0.00 65 1005.8
20260508051529 41 350 0.0 0.0 0.00 0.01 0.00 65 1006.0
20260508050020 42 350 0.0 0.0 0.00 0.03 0.00 65 1006.2
20260508044552 42 350 0.0 0.0 0.00 0.03 0.00 65 1006.1
20260508043025 43 350 0.0 0.0 0.00 0.03 0.00 62 1006.1
20260508041601 44 350 0.0 0.0 0.00 0.03 0.00 61 1006.1
20260508040039 44 350 0.0 0.0 0.00 0.04 0.03 59 1006.2
20260508034531 45 350 0.0 0.0 0.00 0.04 0.03 56 1006.1
20260508033007 46 320 0.0 0.0 0.00 0.04 0.03 56 1006.2
20260508031546 47 320 0.0 0.0 0.00 0.04 0.03 53 1006.1
20260508030020 48 320 0.0 0.0 0.00 0.04 0.03 50 1006.2
20260508024555 49 320 0.0 0.0 0.00 0.04 0.03 47 1006.1
20260508023042 50 320 0.0 0.0 0.00 0.04 0.03 47 1006.0
20260508021528 51 9 0.0 0.0 0.00 0.04 0.03 44 1005.8
20260508020058 51 50 0.0 0.0 0.00 0.05 0.03 43 1005.7
20260508014546 52 313 0.0 3.5 0.00 0.05 0.03 41 1005.3
20260508013012 52 66 0.0 1.7 0.00 0.05 0.03 41 1005.2
20260508011549 53 329 0.0 2.6 0.00 0.05 0.03 40 1005.0
20260508010027 53 329 0.0 2.6 0.00 0.05 0.03 40 1004.8
20260508004515 53 333 0.0 4.3 0.00 0.05 0.03 40 1004.6
20260508003058 54 319 0.0 0.9 0.00 0.05 0.03 42 1004.4
20260508001530 55 319 0.0 0.0 0.00 0.05 0.03 40 1004.0
20260508000003 56 319 0.0 1.7 0.00 0.05 0.03 38 1003.9
20260507234543 56 240 0.9 3.5 0.00 0.05 0.03 36 1003.7
20260507233031 57 285 0.0 3.5 0.00 0.05 0.03 35 1003.7
20260507231557 58 336 0.9 4.3 0.00 0.05 0.03 34 1003.6
20260507230035 58 273 0.9 12.2 0.00 0.07 0.03 33 1003.4
20260507224520 59 270 3.5 10.4 0.00 0.07 0.03 33 1003.0
20260507223009 59 257 3.5 10.4 0.00 0.07 0.03 32 1003.0
20260507221541 60 336 2.6 8.7 0.00 0.07 0.03 32 1002.8
20260507220028 61 184 2.6 9.6 0.00 0.13 0.03 31 1002.7
20260507214516 63 52 1.7 7.0 0.00 0.13 0.03 31 1002.8
20260507213056 64 236 2.6 12.2 0.00 0.13 0.03 30 1002.7
20260507211539 64 316 0.0 13.0 0.00 0.13 0.03 30 1002.6
20260507210011 63 237 2.6 11.3 0.00 0.16 0.03 30 1002.5
20260507204552 64 271 0.9 9.6 0.00 0.16 0.03 30 1002.4
20260507203030 63 239 1.7 8.7 0.00 0.16 0.03 31 1002.6
20260507201519 65 265 0.9 7.0 0.00 0.16 0.03 31 1002.5
20260507200103 65 313 1.7 7.8 0.00 0.20 0.03 31 1002.5
20260507194535 65 302 1.7 8.7 0.00 0.20 0.03 32 1002.5
20260507193005 65 302 1.7 9.6 0.00 0.20 0.03 30 1002.5
20260507191548 64 77 1.7 9.6 0.00 0.20 0.03 32 1002.6
20260507190016 64 248 7.0 13.0 0.00 0.20 0.03 31 1002.8
20260507184553 63 345 0.9 7.8 0.00 0.20 0.03 37 1002.7
20260507183039 62 271 3.5 12.2 0.00 0.20 0.03 38 1003.0
20260507181516 62 313 2.6 9.6 0.00 0.20 0.03 40 1002.9
20260507180054 62 327 2.6 10.4 0.00 0.20 0.03 41 1003.0
20260507174527 62 321 2.6 9.6 0.00 0.20 0.03 41 1003.1
20260507173004 60 265 4.3 11.3 0.00 0.20 0.03 42 1003.3
20260507171542 61 360 3.5 10.4 0.00 0.20 0.03 43 1003.4
20260507170019 61 331 0.9 9.6 0.00 0.20 0.03 46 1003.4
20260507164559 61 281 2.6 8.7 0.00 0.20 0.03 48 1003.6
20260507163044 60 309 2.6 12.2 0.00 0.20 0.03 48 1003.8
20260507161519 57 231 0.0 5.2 0.00 0.20 0.03 58 1003.7
20260507160107 56 198 0.9 6.1 0.00 0.20 0.03 68 1004.0
20260507154534 55 199 0.9 7.8 0.00 0.20 0.03 68 1004.2
20260507153011 56 238 0.9 4.3 0.00 0.20 0.03 66 1004.3
20260507151549 59 154 0.9 7.0 0.00 0.20 0.03 60 1004.4
20260507150022 60 234 1.7 9.6 0.00 0.20 0.03 49 1004.4
20260507144549 59 202 0.0 7.0 0.00 0.20 0.03 53 1004.4
20260507143036 59 237 0.0 2.6 0.00 0.20 0.03 61 1004.5
20260507141511 57 319 0.0 1.7 0.00 0.20 0.03 65 1004.6
20260507140101 57 161 0.0 2.6 0.00 0.20 0.03 66 1004.8
20260507134525 55 86 0.0 3.5 0.00 0.20 0.03 71 1005.0
20260507133007 53 288 0.0 6.1 0.00 0.20 0.03 74 1005.1
20260507131546 52 255 0.9 4.3 0.00 0.20 0.03 76 1005.2
20260507130016 51 43 0.0 0.0 0.00 0.20 0.03 80 1005.2
20260507124556 50 11 0.0 0.0 0.00 0.20 0.03 83 1005.3
20260507123031 50 335 0.0 5.2 0.00 0.20 0.03 83 1005.4
20260507121508 49 94 0.0 0.0 0.00 0.20 0.03 85 1005.4
20260507120045 48 319 0.0 0.0 0.00 0.20 0.03 87 1005.4
20260507114518 47 18 0.0 0.0 0.00 0.20 0.03 89 1005.5
20260507113057 47 332 0.0 0.0 0.00 0.20 0.03 90 1005.2
20260507111545 46 308 0.0 0.0 0.00 0.20 0.03 91 1005.5
20260507110021 46 308 0.0 0.0 0.00 0.20 0.03 91 1005.5
20260507104550 46 308 0.0 0.0 0.00 0.20 0.03 91 1005.4
20260507103038 46 308 0.0 0.0 0.00 0.20 0.03 91 1006.1
20260507101537 46 308 0.0 0.0 0.00 0.20 0.03 91 1005.7
20260507094548 47 309 0.0 0.9 0.01 0.20 0.03 90 1005.6
20260507093025 47 277 0.0 0.0 0.01 0.20 0.03 91 1005.1
20260507091603 47 320 0.0 0.9 0.01 0.20 0.03 91 1004.7
20260507090032 47 13 0.0 0.9 0.01 0.20 0.03 91 1004.9
20260507084517 48 15 0.0 2.6 0.00 0.19 0.02 92 1004.7
20260507083006 48 17 0.0 0.0 0.00 0.19 0.02 92 1005.2
20260507081553 48 18 0.0 0.0 0.00 0.19 0.02 91 1004.6
20260507080022 48 17 0.0 1.7 0.00 0.19 0.02 91 1004.2
20260507074559 48 343 0.0 0.9 0.00 0.19 0.02 91 1004.4
20260507073040 48 319 0.0 0.9 0.00 0.19 0.02 92 1004.4
20260507071518 49 292 0.0 2.6 0.00 0.19 0.02 93 1004.1
20260507070137 49 342 0.0 1.7 0.00 0.19 0.02 93 1004.2
20260507064531 49 338 0.0 1.7 0.00 0.19 0.02 94 1004.0
20260507063007 50 42 0.0 0.0 0.00 0.19 0.02 94 1003.9
20260507061542 50 46 0.0 1.7 0.00 0.19 0.02 94 1003.8